Location: 10033 Water Well
(34.0865°N, 106.8959°W)
Time: 21:46:04
(UTC+00:00)

Cosmos 1743 Rocket - Pass Details

Date: 13 January 2026
Orbit: 597 x 626 km, 82.6° (Epoch: 11 February)

Event Time Altitude Azimuth Distance (km) Brightness Sun altitude
Rises 00:45:00 0° 347° (NNW) 2,873 6.9 -5.8°
Reaches altitude 10° 00:47:16 10° 343° (NNW) 1,960 6.1 -6.2°
Maximum altitude 00:51:29 53° 267° (W) 743 4.5 -7.1°
Drops below altitude 10° 00:55:38 10° 190° (S) 1,933 6.5 -7.9°
Sets 00:57:51 0° 186° (S) 2,828 7.3 -8.3°
